Regional Weather Roundup
Issued by NWS

Home | Current Version | Previous Version | Text Only | Print | Product List | Glossary On
Versions: 1 2 3 4 5 6 7 8 9 10 11 12 13 14 15 16 17 18 19 20 21 22 23 24 25 26 27 28 29 30 31 32 33 34 35 36 37 38 39 40 41 42 43 44 45 46 47 48 49 50
000
ASUS43 KIND 222109
RWRIN

WEATHER ROUNDUP FOR INDIANA
NATIONAL WEATHER SERVICE INDIANAPOLIS IN
400 PM EST THU FEB 22 2018

NOTE: "FAIR" INDICATES FEW OR NO CLOUDS BELOW 12,000 FEET WITH NO
SIGNIFICANT WEATHER AND/OR OBSTRUCTIONS TO VISIBILITY.

* - STATION DOES NOT REPORT WEATHER SUCH AS PRECIPITATION OR FOG.

+ - STATION NOT QUALITY CONTROLLED BY THE NATIONAL WEATHER SERVICE.
    USE DATA WITH CAUTION...ESPECIALLY DEWPOINT AND RELATIVE
    HUMIDITY OBSERVATIONS.

INZ001>003-010>013-019-020-222200-
NORTHWEST INDIANA

CITY           SKY/WX    TMP DP  RH WIND       PRES   REMARKS
GARY /AIRPORT/ CLOUDY    39  32  75 NE8       30.43F WCI  34
LA PORTE +     CLOUDY    43  36  74 E15       30.42F
MICHIGAN CITY+ CLOUDY    43  32  65 SE9G16    30.43F
MONTICELLO +   CLOUDY    44  38  82 E12G18    30.37F
RENSSELAER +   CLOUDY    45  36  70 E20       30.38F
VALPARAISO     CLOUDY    44  35  70 E17       30.42F

$$

LMZ046-743>745-222200-
SOUTHERN LAKE MICHIGAN

STATION/POSITION TIME  TEMP    WIND        PRES    WAVE
                       AIR SEA DIR/SP/G            HT
                 (UTC) (F)     (DEG/KT/KT) (MB)    (FT)
BURNS HARBOR     2040   41     100/ 10/ 17 1030.5F
MICHIGAN CITY    2040   42      90/ 12/ 14   N/A

$$

INZ004-005-014>016-021>024-222200-
NORTH CENTRAL INDIANA

CITY           SKY/WX    TMP DP  RH WIND       PRES   REMARKS
ELKHART        PTSUNNY   43  32  65 E12G17    30.45F
GOSHEN         CLOUDY    41  33  73 E14       30.46F
LOGANSPORT +   CLOUDY    43  37  81 E16       30.39F
PERU/GRISSOM   PTSUNNY   44  44  98 E17G24    30.38F
ROCHESTER +    CLOUDY    45  37  76 E18G25    30.43S
SOUTH BEND     CLOUDY    43  32  65 E20G25    30.43F
WARSAW +       CLOUDY    41  34  75 N12       30.45R

$$

INZ006>009-017-018-025>027-222200-
NORTHEAST INDIANA

CITY           SKY/WX    TMP DP  RH WIND       PRES   REMARKS
AUBURN +       CLOUDY    37  34  87 E14       30.47F WCI  29
FORT WAYNE     PTSUNNY   41  36  82 E22       30.46F
HUNTINGTON +   CLOUDY    40  36  86 E10G20    30.43F WCI  34
KENDALLVILLE + CLOUDY    37  33  85 E13G20    30.45F WCI  29

$$

INZ028-029-035-036-043>045-051>053-222200-
WEST CENTRAL INDIANA

CITY           SKY/WX    TMP DP  RH WIND       PRES   REMARKS
CRAWFORDSVL +  CLOUDY    42  42  99 E16         N/A
GREENCASTLE +  CLOUDY    43  37  81 E14       30.35F
LAFAYETTE      CLOUDY    45  41  86 E17G24    30.35F
TERRE HAUTE    CLOUDY    45  40  82 E12       30.34F

$$

INZ030>032-037>040-046>048-054>057-064-065-222200-
CENTRAL INDIANA

CITY           SKY/WX    TMP DP  RH WIND       PRES   REMARKS
ANDERSON       CLOUDY    45  39  81 E12G17    30.40F
COLUMBUS       CLOUDY    43 N/A N/A E10       30.39F
GREENWOOD *+   CLOUDY    42 -47   2 E9G16     30.38F
INDIANAPOLIS   CLOUDY    44  39  82 E16       30.37F
-EAGLE CREEK   CLOUDY    45  38  76 E15G22    30.36F
KOKOMO +       CLOUDY    44  40  85 E16       30.39F
MARION +       CLOUDY    43  39  84 E13       30.40F
MT COMFORT *+  CLOUDY    43  43 100 E14G20    30.38F
SHELBYVILLE    CLOUDY    45  40  82 E10       30.37F
ZIONSVILLE +   CLOUDY    44  41  88 E12       30.37F

$$

INZ033-034-041-042-049-050-058-059-222200-
EAST CENTRAL INDIANA

CITY           SKY/WX    TMP DP  RH WIND       PRES   REMARKS
MUNCIE         CLOUDY    46  40  79 E16       30.40F
RICHMOND +     CLOUDY    43  41  93 E14       30.40S

$$

INZ060-061-067>069-081>083-085>088-222200-
SOUTHWEST INDIANA

CITY           SKY/WX    TMP DP  RH WIND       PRES   REMARKS
EVANSVILLE     CLOUDY    50  49  96 E7        30.32F
HUNTINGBURG +  CLOUDY    49  46  90 E6        30.33F
WASHINGTON +   CLOUDY    46  44  94 E8        30.34F FOG

$$

INZ062-063-066-070>080-084-089>092-222200-
SOUTH CENTRAL AND SOUTHEAST INDIANA

CITY           SKY/WX    TMP DP  RH WIND       PRES   REMARKS
BATESVILLE +   CLOUDY    45  45 100 MISG      30.39S
BEDFORD +      CLOUDY    45  43  93 E8        30.35F FOG
BLOOMINGTON    CLOUDY    45  42  89 E9        30.35F
FRENCH LICK *+ CLOUDY    45 N/A N/A E7        30.33F
MADISON *+     CLOUDY    45  43  93 E8        30.38F
NORTH VERNON + CLOUDY    43  41  93 E8        30.39S
SEYMOUR +      CLOUDY    46  43  87 E9        30.37F

$$





USA.gov is the U.S. government's official web portal to all federal, state and local government web resources and services.